Location: *
(28.2408°N, 53.4600°E)
Time: 14:18:40
(UTC+00:00)

Cosmos 1452 Rocket - Pass Details

Date: 22 September 2019
Orbit: 768 x 774 km, 74.1° (Epoch: 15 October)

Event Time Altitude Azimuth Distance (km) Brightness Sun altitude
Rises 16:34:28 0° 209° (SSW) 3,223 6.9 -29.3°
Reaches altitude 10° 16:36:55 10° 216° (SW) 2,299 6.1 -29.8°
Maximum altitude 16:41:54 45° 288° (WNW) 1,039 4.5 -30.8°
Drops below altitude 10° 16:46:54 10° 1° (N) 2,308 6.1 -31.9°
Sets 16:49:23 0° 8° (N) 3,237 6.9 -32.4°
